{"data":{"norad_id":41917,"epoch":"2026-09-20T02:53:06.410112Z","epoch_age_seconds":48284,"freshness":"FRESH","line1":"1 41917U 17003A   26263.12021308  .00000097  00000+0  27422-4 0  9995","line2":"2 41917  86.3949  48.8335 0001847  86.5950 273.5457 14.34216892506810","mean_motion":14.34216892,"eccentricity":0.0001847,"inclination_deg":86.3949,"raan_deg":48.8335,"arg_perigee_deg":86.595,"mean_anomaly_deg":273.5457,"bstar":2.7422e-5,"rev_number":50681,"period_min":100.40322408921,"perigee_km":776.34833070462,"apogee_km":778.99168581347,"semimajor_km":7155.807008259,"source":"CELESTRAK","updated_at":"2026-09-20T09:00:36.319422Z"}}